TIBA-1

Last updated on Thu Aug 13 2026 00:03:02 GMT+0000 (Coordinated Universal Time)

1 44800U 19080A 26224.57911483 .00000138 00000+0 00000+0 0 9998 2 44800 0.0562 16.9678 0001950 135.3498 52.6569 1.00271247 24627
UTC large
Height (km)
Speed (km/s)
/
Latitude / Longitude
Inclination (degrees)
Orbital Period (minutes)
Azimuth
Elevation
Range (km)
Doppler Factor

Next 0 passes for location: London (51.5072 / 0.1276)

No passes found over London.
TIBA-1